Regional Weather Roundup
Issued by NWS

Home | Current Version | Previous Version | Graphics & Text | Print | Product List | Glossary On
Versions: 1 2 3 4 5 6 7 8 9 10 11 12 13 14 15 16 17 18 19 20 21 22 23 24 25 26 27 28 29 30 31 32 33 34 35 36 37 38 39 40 41 42 43 44 45 46 47 48 49 50
000
ASUS43 KLOT 290158
RWRIL

ILLINOIS REGIONAL WEATHER ROUNDUP
NATIONAL WEATHER SERVICE CHICAGO/ROMEOVILLE IL
900 PM CDT MON JUL 28 2014

NOTE: "FAIR" INDICATES FEW OR NO CLOUDS BELOW 12,000 FEET WITH NO
SIGNIFICANT WEATHER AND/OR OBSTRUCTIONS TO VISIBILITY.

* THESE STATIONS ARE NOT UNDER NWS QUALITY CONTROL. THEY ALSO MAY NOT
  REPORT WEATHER SUCH AS PRECIPITATION OR FOG.

ILZ001-002-007-009-015-016-024-290300-
NORTHWEST ILLINOIS

CITY           SKY/WX    TMP DP  RH WIND       PRES   REMARKS
MOLINE         CLEAR     61  53  75 CALM      30.11S
$$

ILZ003-004-008-010-011-017-018-290300-
NORTH CENTRAL ILLINOIS

CITY           SKY/WX    TMP DP  RH WIND       PRES   REMARKS
ROCKFORD       NOT AVBL
$$

ILZ005-006-012>014-019>023-290300-
NORTHEAST ILLINOIS

CITY           SKY/WX    TMP DP  RH WIND       PRES   REMARKS
CHICAGO-OHARE  PTCLDY    64  48  56 E5        30.07R
CHICAGO-MIDWAY PTCLDY    65  51  60 E6        30.07R
AURORA         CLEAR     60  54  80 W5        30.08S
WAUKEGAN       CLOUDY    60  50  69 S5        30.06S
DUPAGE AIRPORT CLOUDY    66  52  60 W6        30.07R
WHEELING       PTCLDY    62  50  64 SE5       30.08S
NORTHERLY ISL    N/A     61  50  67 NE2         N/A
$$

LMZ740>746-290300-
SOUTHERN LAKE MICHIGAN

STATION/POSITION SKY/WX   TEMP    WIND        PRES    VSBY  WAVE
                          AIR SEA DIR/SP/G                  HT/PER
                          (F)     (DEG/KT/KT) (MB)    (MI)  (FT/S)
SOUTHERN BUOY              60 60   20/  6/  8 1017.7F         4/ 6
WAUKEGAN HARBOR            60     160/  4/  4   N/A
HARRISON CRIB              61      20/  5/  6   N/A
BURNHAM HARBOR             60      10/  2/  9   N/A
CALUMET HARBOR             61     350/  2/  3 1017.2S
MICHIGAN CITY              63      10/ 18/ 20   N/A
MICHIGAN CITY 6N           64 67   20/ 12/ 16   N/A           7/ 7
ST. JOSEPH                 61 66   10/  6/ 10   N/A           6/ 7
$$

ILZ025>027-034>036-040-047-049-050-058-095>099-290300-
WEST-CENTRAL ILLINOIS

CITY           SKY/WX    TMP DP  RH WIND       PRES   REMARKS
$$

ILZ028>032-037-038-041>044-048-051>054-059>061-290300-
CENTRAL ILLINOIS

CITY           SKY/WX    TMP DP  RH WIND       PRES   REMARKS
PEORIA         NOT AVBL
SPRINGFIELD    CLEAR     62  57  83 N3        30.12R
TAYLORVILLE    NOT AVBL
$$

ILZ033-039-045-046-055>057-062-063-290300-
EAST-CENTRAL ILLINOIS

CITY           SKY/WX    TMP DP  RH WIND       PRES   REMARKS
CHAMPAIGN      MOCLDY    62  53  72 CALM      30.10S
MATTOON        CLEAR     60  51  72 N3        30.09R
$$

ILZ079-100>102-290300-
SOUTHWEST ILLINOIS

CITY           SKY/WX    TMP DP  RH WIND       PRES   REMARKS
CAHOKIA*       CLEAR     69  54  58 N8        30.10S
$$

ILZ064>066-069>071-074>076-080>082-084>086-088>090-092>094-290300-
SOUTH-CENTRAL ILLINOIS

CITY           SKY/WX    TMP DP  RH WIND       PRES   REMARKS
CARBONDALE     CLOUDY    71  55  56 N9        30.08R
$$

ILZ067-068-072-073-078-083-087-091-290300-
SOUTHEAST ILLINOIS

CITY           SKY/WX    TMP DP  RH WIND       PRES   REMARKS
LAWRENCEVILLE  CLEAR     65  55  70 N10       30.08R
$$

ABBREVIATIONS USED IN REMARKS
   TC - TEMPERATURE IN CELSIUS
  WCI - WIND CHILL INDEX
   HX - HEAT INDEX
  VSB - VISIBILITY
$$



USA.gov is the U.S. government's official web portal to all federal, state and local government web resources and services.